This is the latest recevied weather packets stored in our database for station/object SP6PGH-13. If no packets are shown the sender has not sent any weather packets the latest 10 day(s).
| Time | Temp. | Humidity | Pressure | Rain* | Wind** | Luminosity | Snow |
|---|---|---|---|---|---|---|---|
| 1777415056 | 1.11° C | 69% | 1010.7 hPa | - | - | - | - |
| 1777414155 | 1.67° C | 70% | 1010.7 hPa | - | - | - | - |
| 1777413254 | 1.67° C | 73% | 1010.6 hPa | - | - | - | - |
| 1777412353 | 2.22° C | 66% | 1010.6 hPa | - | - | - | - |
| 1777411453 | 2.78° C | 63% | 1010.5 hPa | - | - | - | - |
| 1777410552 | 3.33° C | 58% | 1010.5 hPa | - | - | - | - |
| 1777409651 | 2.78° C | 60% | 1010.5 hPa | - | - | - | - |
| 1777408750 | 3.33° C | 59% | 1010.6 hPa | - | - | - | - |
| 1777407849 | 3.89° C | 55% | 1010.6 hPa | - | - | - | - |
| 1777406948 | 3.89° C | 53% | 1010.6 hPa | - | - | - | - |
| 1777406047 | 5° C | 53% | 1010.7 hPa | - | - | - | - |
| 1777405146 | 5.56° C | 47% | 1010.5 hPa | - | - | - | - |
| 1777404245 | 6.11° C | 47% | 1010.5 hPa | - | - | - | - |
| 1777403344 | 7.22° C | 43% | 1010.5 hPa | - | - | - | - |
| 1777402443 | 7.78° C | 40% | 1010.4 hPa | - | - | - | - |
| 1777401542 | 8.33° C | 39% | 1010.3 hPa | - | - | - | - |
| 1777400641 | 8.89° C | 36% | 1010.1 hPa | - | - | - | - |
| 1777399740 | 10° C | 35% | 1009.9 hPa | - | - | 3 W/m² | - |
| 1777398839 | 11.11° C | 32% | 1009.8 hPa | - | - | 8 W/m² | - |
| 1777397938 | 11.67° C | 30% | 1009.6 hPa | - | - | 17 W/m² | - |
| 1777397037 | 12.22° C | 29% | 1009.5 hPa | - | - | 26 W/m² | - |
| 1777396136 | 12.22° C | 27% | 1009.4 hPa | - | - | 36 W/m² | - |
| 1777395235 | 12.78° C | 26% | 1009.5 hPa | - | - | 47 W/m² | - |
| 1777394334 | 12.78° C | 26% | 1009.4 hPa | - | - | 68 W/m² | - |
| 1777393433 | 13.33° C | 26% | 1009.3 hPa | - | - | 95 W/m² | - |
* Rain since midnight (hover to see other rain measurements)
** Current wind speed in m/s (hover to see current wind gust speed)